#timestamp,LO_Frequency,Hit,StdDev 
1627916415.7,286047000.7,N
1627916435.5,286046999.9,N
1627916455.4,286047000.6,N
1627916475.2,286046998.6,N
1627916495.0,286046998.8,N
1627916496.0,286046998.8,N
1627916515.8,286047001.0,N
1627916535.6,286047000.9,N
1627916555.5,286047000.9,N
1627916575.3,286046998.2,N
1627916595.1,286046998.1,N
1627916615.9,286046998.2,N
1627916635.7,286046998.6,N
1627916655.5,286047000.8,N
1627916675.4,286047001.0,N
1627916695.2,286047000.8,N
1627916715.1,286047000.6,N
1627916716.0,286047000.6,N
1627916735.8,286047000.9,N
1627916755.6,286046998.4,N
1627916775.5,286046998.8,N
1627916795.3,286046998.5,N
1627916815.2,286047001.1,N
1627916835.9,286047000.7,N
1627916855.7,286047001.0,N
1627916875.6,286047000.8,N
1627916895.4,286046998.2,N
1627916915.3,286047000.4,N
1627916935.1,286047000.0,N
1627916936.0,286047000.0,N
1627916955.8,286046999.7,N
1627916975.7,286047000.8,N
1627916995.5,286047000.8,N
1627917015.4,286047001.1,N
1627917035.2,286047000.9,N
1627917055.0,286047000.4,N
1627917055.9,286047000.4,N
1627917075.8,286047002.4,N
1627917095.6,286047002.2,N
1627917115.4,286047002.1,N
1627917135.3,286047002.0,N
1627917155.1,286047001.6,N
1627917175.9,286047001.9,N
1627917195.7,286047001.9,N
1627917215.5,286047002.7,N
1627917235.4,286047000.3,N
1627917255.2,286046998.1,N
1627917275.0,286046998.5,N
1627917275.9,286046998.5,N
1627917295.8,286046998.7,N
1627917315.6,286046999.2,N
1627917335.5,286046999.2,N
1627917355.3,286046999.6,N
1627917375.1,286046999.5,N
1627917395.9,286046996.5,N
1627917415.7,286046999.1,N
1627917435.5,286046997.4,N
1627917455.4,286046997.8,N
1627917475.2,286046997.5,N
1627917495.1,286046997.1,N
1627917496.0,286046997.1,N
1627917515.8,286046999.4,N
1627917535.6,286046998.7,N
1627917555.5,286046999.3,N
1627917575.3,286046999.5,N
1627917595.2,286046998.7,N
1627917615.9,286047000.7,N
1627917635.7,286047000.5,N
1627917655.6,286047000.6,N
1627917675.4,286047000.2,N
1627917695.2,286046999.7,N
1627917715.1,286047000.2,N
1627917716.0,286047000.2,N
1627917735.8,286047001.1,N
1627917755.7,286046998.5,N
1627917775.5,286046998.7,N
1627917795.3,286046999.3,N
1627917815.2,286046998.8,N
1627917835.0,286046996.6,Y
1627917835.9,286046996.6,P
1627917855.8,286046998.1,N
1627917875.6,286047000.5,N
1627917895.4,286046998.5,N
1627917915.3,286047000.8,N
1627917935.1,286046998.8,N
1627917955.8,286047000.9,N
1627917975.7,286046998.5,N
1627917995.5,286046998.2,N
1627918015.3,286047001.0,N
1627918035.2,286047000.1,N
1627918055.0,286047000.1,N
1627918055.9,286047000.1,N
1627918075.8,286047000.6,N
1627918095.6,286047000.6,N
1627918115.4,286047000.3,N
1627918135.3,286047001.0,N
1627918155.1,286046999.8,N
1627918175.9,286046999.7,N
1627918195.7,286047000.1,N
1627918215.5,286047000.3,N
1627918235.4,286046998.8,N
1627918255.2,286046998.7,N
1627918275.0,286046998.3,N
1627918275.9,286046998.3,N
1627918295.8,286046998.6,N
1627918315.6,286047000.8,N
1627918335.5,286047002.4,N
1627918355.3,286047002.2,N
1627918375.1,286047001.5,N
1627918395.9,286047004.1,Y
1627918415.7,286047003.1,P
1627918435.6,286047002.9,N
1627918455.4,286047001.4,N
1627918475.2,286047002.8,N
1627918495.1,286047002.8,N
1627918496.0,286047002.8,N
1627918515.8,286047000.4,N
1627918535.6,286046998.3,N
1627918555.5,286047001.1,N
1627918575.3,286047001.0,N
1627918595.2,286047000.1,N
1627918615.9,286047000.2,N
1627918635.7,286047002.3,N
1627918655.6,286047000.1,N
1627918675.4,286047000.4,N
1627918695.2,286047000.4,N
1627918715.1,286047000.4,N
1627918716.0,286047000.4,N
1627918735.8,286047001.0,N
1627918755.7,286047001.0,N
1627918775.5,286047000.7,N
1627918795.3,286046998.3,N
1627918815.2,286047001.2,N
1627918835.0,286046998.6,N
1627918835.9,286046998.6,N
1627918855.7,286046998.5,N
1627918875.6,286046999.1,N
1627918895.4,286046996.6,N
1627918915.3,286046997.0,N
1627918935.1,286046996.9,N
1627918936.0,286046996.9,N
1627918955.8,286046999.1,N
1627918975.7,286046999.6,N
1627918995.5,286046997.0,N
1627919015.3,286046999.6,N
1627919035.2,286046997.0,N
1627919055.0,286046998.9,N
1627919055.9,286046998.9,N
1627919075.8,286046999.0,N
1627919095.6,286046996.7,N
1627919115.4,286046997.1,N
1627919135.3,286046997.4,N
1627919155.1,286046997.2,N
1627919175.8,286046997.8,N
1627919195.7,286046996.8,N
1627919215.5,286046999.4,N
1627919235.4,286046998.8,N
1627919255.2,286046999.2,N
1627919275.0,286046999.6,N
1627919275.9,286046999.6,N
1627919295.8,286046999.2,N
1627919315.6,286046999.3,N
1627919335.5,286046997.0,N
1627919355.3,286046996.8,N
1627919375.1,286046999.2,N
1627919395.9,286046996.8,N
1627919415.7,286046999.5,N
1627919435.6,286046996.9,N
1627919455.4,286046997.3,N
1627919475.2,286046997.7,N
1627919495.1,286046997.6,N
1627919496.0,286046997.6,N
1627919515.8,286046998.0,N
1627919535.6,286046995.6,Y
1627919555.5,286046997.8,P
1627919575.3,286046998.0,P
1627919595.2,286046997.8,P
1627919615.9,286046995.2,Y
1627919635.7,286046999.1,P
1627919655.6,286046998.4,N
1627919675.4,286046998.4,P
1627919695.3,286047000.3,N
1627919715.1,286047000.7,N
1627919716.0,286047000.7,N
1627919735.8,286047000.3,N
1627919755.7,286046998.2,N
1627919775.5,286046996.5,Y
1627919795.4,286046998.4,P
1627919815.2,286047000.6,N
1627919835.0,286047000.9,N
1627919835.9,286047000.9,N
1627919855.8,286046999.7,N
1627919875.6,286047000.3,N
1627919895.4,286046999.9,N
1627919915.3,286047000.4,N
1627919935.1,286046999.7,N
1627919955.9,286047002.6,Y
1627919975.7,286047001.5,P
1627919995.5,286047000.2,N
